This is the latest recevied weather packets stored in our database for station/object R8AHC-W4. If no packets are shown the sender has not sent any weather packets the latest 10 day(s).
| Time | Temp. | Humidity | Pressure | Rain* | Wind** | Luminosity | Snow |
|---|---|---|---|---|---|---|---|
| 1777946222 | 8.89° C | 78% | 1010 hPa | - | 1.79 m/s, 288° | - | - |
| 1777921022 | 7.78° C | 85% | 1010 hPa | - | 2.24 m/s, 266° | - | - |
| 1777906622 | 11.67° C | 80% | 1010 hPa | - | 4.02 m/s, 294° | - | - |
| 1777903022 | 11.67° C | 80% | 1010 hPa | - | 4.02 m/s, 294° | - | - |
| 1777899422 | 11.67° C | 80% | 1009 hPa | - | 4.02 m/s, 294° | - | - |
| 1777895822 | 11.67° C | 80% | 1010 hPa | - | 4.02 m/s, 294° | - | - |
| 1777892222 | 11.67° C | 80% | 1009 hPa | - | 4.02 m/s, 294° | - | - |
| 1777881423 | 11.67° C | 83% | 1009 hPa | - | 2.68 m/s, 264° | - | - |
| 1777874222 | 8.89° C | 95% | 1010 hPa | - | 1.34 m/s, 178° | - | - |
| 1777867022 | 6.67° C | 98% | 1011 hPa | - | 1.79 m/s, 125° | - | - |
| 1777863422 | 6.67° C | 98% | 1012 hPa | - | 1.79 m/s, 125° | - | - |
| 1777859822 | 6.67° C | 98% | 1012 hPa | - | 1.79 m/s, 125° | - | - |
| 1777856222 | 6.67° C | 98% | 1013 hPa | - | 1.79 m/s, 125° | - | - |
| 1777845422 | 5.56° C | 96% | 1016 hPa | - | 2.68 m/s, 156° | - | - |
| 1777838222 | 5.56° C | 94% | 1017 hPa | - | 1.34 m/s, 142° | - | - |
| 1777827422 | 6.67° C | 81% | 1019 hPa | - | 2.24 m/s, 190° | - | - |
| 1777813022 | 13.33° C | 35% | 1019 hPa | - | 2.24 m/s, 254° | - | - |
| 1777795022 | 11.67° C | 39% | 1021 hPa | - | 4.02 m/s, 266° | - | - |
| 1777791422 | 11.67° C | 39% | 1021 hPa | - | 4.02 m/s, 266° | - | - |
| 1777784222 | 10° C | 46% | 1023 hPa | - | 4.47 m/s, 262° | - | - |
| 1777777022 | 6.67° C | 60% | 1023 hPa | - | 4.02 m/s, 257° | - | - |
| 1777762622 | 2.22° C | 74% | 1023 hPa | - | 2.24 m/s, 258° | - | - |
| 1777751822 | 3.33° C | 71% | 1022 hPa | - | 2.24 m/s, 259° | - | - |
| 1777744646 | 4.44° C | 65% | 1021 hPa | - | 2.24 m/s, 264° | - | - |
| 1777741022 | 4.44° C | 65% | 1021 hPa | - | 2.24 m/s, 264° | - | - |
* Rain since midnight (hover to see other rain measurements)
** Current wind speed in m/s (hover to see current wind gust speed)